Sturgeon Lake, MN

12:03 PM CST on February 23, 2017 (GMT -0600)
Moose Lake-Carlton County

Weather History for KMZH - October, 2011

Change the Weather History Date:

Thursday, October 6, 2011

  Actual Average Record
Temperature  
Mean Temperature 60 °F -  
Max Temperature 78 °F 58 °F 80 °F (1961)
Min Temperature 42 °F 36 °F 17 °F (1976)
Degree Days  
Heating Degree Days 5    
Growing Degree Days 10 (Base 50)    
Moisture  
Dew Point 43 °F    
Average Humidity 65    
Maximum Humidity 100    
Minimum Humidity 21    
Precipitation  
Precipitation 0.00 in - - ()
Sea Level Pressure  
Sea Level Pressure 30.06 in    
Wind  
Wind Speed 2 mph (SE)    
Max Wind Speed 16 mph    
Max Gust Speed 25 mph    
Visibility 8 miles    
Events      
Averages and records for this station are not official NWS values.
T = Trace of Precipitation, MM = Missing Value Source: NWS Daily Summary

Daily Weather History Graph

Daily Weather History Graph

Search for Another Location

Airport or City:

Trip Planner

Search our weather history database for the weather conditions in past years. The results will help you decide how hot, cold, wet, or windy it might be!

Date:

Astronomy

Oct. 06, 2011 Rise Set
Actual Time 7:16 AM CDT 6:41 PM CDT
Civil Twilight 6:45 AM CDT 7:11 PM CDT
Nautical Twilight 6:11 AM CDT 7:46 PM CDT
Astronomical Twilight 5:35 AM CDT 8:21 PM CDT
Moon 4:10 PM CDT (10/6) 1:47 AM CDT (10/6)
Length of Visible Light 12h 25m
Length of Day
11h 25m
Waxing Gibbous, 75% of the Moon is Illuminated
Oct 6
Waxing Gibbous
Oct 11
Full
Oct 19
Last Quarter
Oct 26
New
Nov 2
First Quarter

Hourly Weather History & Observations

Time (CDT) Temp. Windchill Dew Point Humidity Pressure Visibility Wind Dir Wind Speed Gust Speed Precip Events Conditions
12:12 AM 46.4 °F - 46.4 °F 100% 30.07 in 4.0 mi Calm Calm - N/A   Overcast
12:32 AM 46.4 °F - 46.4 °F 100% 30.07 in 4.0 mi Calm Calm - N/A   Scattered Clouds
12:53 AM 46.4 °F - 46.4 °F 100% 30.07 in 1.2 mi Calm Calm - N/A   Mostly Cloudy
1:13 AM 46.4 °F - 44.6 °F 93% 30.07 in 5.0 mi Calm Calm - N/A   Scattered Clouds
1:32 AM 46.4 °F - 44.6 °F 93% 30.07 in 7.0 mi Calm Calm - N/A   Clear
1:53 AM 46.4 °F - 44.6 °F 93% 30.07 in 0.8 mi Calm Calm - N/A   Mostly Cloudy
2:12 AM 46.4 °F - 44.6 °F 93% 30.07 in 5.0 mi Calm Calm - N/A   Scattered Clouds
2:33 AM 46.4 °F - 44.6 °F 93% 30.07 in 7.0 mi Calm Calm - N/A   Clear
2:52 AM 44.6 °F - 44.6 °F 100% 30.07 in 4.0 mi Calm Calm - N/A   Clear
3:12 AM 44.6 °F - 44.6 °F 100% 30.07 in 5.0 mi Calm Calm - N/A   Clear
3:33 AM 44.6 °F - 44.6 °F 100% 30.07 in 5.0 mi Calm Calm - N/A   Clear
3:52 AM 44.6 °F - 44.6 °F 100% 30.07 in 5.0 mi Calm Calm - N/A   Clear
4:12 AM 44.6 °F - 44.6 °F 100% 30.07 in 5.0 mi Calm Calm - N/A   Clear
4:32 AM 44.6 °F - 42.8 °F 93% 30.07 in 3.0 mi Calm Calm - N/A   Mist
4:52 AM 44.6 °F - 44.6 °F 100% 30.08 in 5.0 mi Calm Calm - N/A   Clear
5:12 AM 44.6 °F - 42.8 °F 93% 30.08 in 2.0 mi Calm Calm - N/A   Mist
5:33 AM 44.6 °F - 42.8 °F 93% 30.08 in 5.0 mi Calm Calm - N/A   Scattered Clouds
5:52 AM 42.8 °F - 42.8 °F 100% 30.09 in 5.0 mi Calm Calm - N/A   Scattered Clouds
6:12 AM 42.8 °F - 42.8 °F 100% 30.09 in 5.0 mi Calm Calm - N/A   Clear
6:32 AM 42.8 °F - 42.8 °F 100% 30.09 in 7.0 mi Calm Calm - N/A   Scattered Clouds
7:13 AM 42.8 °F - 42.8 °F 100% 30.09 in 4.0 mi Calm Calm - N/A   Clear
7:33 AM 42.8 °F - 42.8 °F 100% 30.09 in 1.5 mi Calm Calm - N/A   Mist
7:52 AM 42.8 °F - 42.8 °F 100% 30.09 in 3.0 mi Calm Calm - N/A   Mist
8:12 AM 44.6 °F 43.1 °F 42.8 °F 93% 30.09 in 5.0 mi NE 3.5 mph - N/A   Clear
8:32 AM 46.4 °F 45.2 °F 44.6 °F 93% 30.11 in 10.0 mi NNE 3.5 mph - N/A   Clear
8:52 AM 46.4 °F 45.2 °F 46.4 °F 100% 30.11 in 10.0 mi NE 3.5 mph - N/A   Clear
9:12 AM 50.0 °F - 48.2 °F 94% 30.11 in 10.0 mi Calm Calm - N/A   Clear
9:33 AM 51.8 °F - 50.0 °F 94% 30.11 in 10.0 mi NE 4.6 mph - N/A   Clear
9:53 AM 55.4 °F - 50.0 °F 82% 30.11 in 10.0 mi Calm Calm - N/A   Clear
10:12 AM 57.2 °F - 50.0 °F 77% 30.10 in 10.0 mi North 3.5 mph - N/A   Clear
10:32 AM 60.8 °F - 51.8 °F 72% 30.09 in 10.0 mi Calm Calm - N/A   Clear
10:52 AM 64.4 °F - 51.8 °F 64% 30.09 in 10.0 mi Calm Calm - N/A   Clear
11:12 AM 69.8 °F - 50.0 °F 49% 30.08 in 10.0 mi Calm Calm - N/A   Clear
11:32 AM 71.6 °F - 46.4 °F 41% 30.07 in 10.0 mi Calm Calm - N/A   Clear
11:52 AM 73.4 °F - 44.6 °F 36% 30.06 in 10.0 mi Calm Calm - N/A   Clear
12:12 PM 75.2 °F - 44.6 °F 34% 30.06 in 10.0 mi SSE 5.8 mph - N/A   Clear
12:32 PM 77.0 °F - 42.8 °F 29% 30.06 in 10.0 mi SSE 6.9 mph - N/A   Clear
12:52 PM 77.0 °F - 41.0 °F 28% 30.06 in 10.0 mi South 12.7 mph 19.6 mph N/A   Clear
1:13 PM 78.8 °F - 42.8 °F 28% 30.05 in 10.0 mi SSE 6.9 mph - N/A   Clear
1:32 PM 78.8 °F - 42.8 °F 28% 30.05 in 10.0 mi SSE 10.4 mph 18.4 mph N/A   Clear
1:52 PM 78.8 °F - 37.4 °F 23% 30.04 in 10.0 mi South 16.1 mph 21.9 mph N/A   Clear
2:13 PM 78.8 °F - 35.6 °F 21% 30.04 in 10.0 mi South 13.8 mph 19.6 mph N/A   Clear
2:32 PM 77.0 °F - 35.6 °F 22% 30.04 in 10.0 mi South 11.5 mph 23.0 mph N/A   Clear
2:53 PM 78.8 °F - 35.6 °F 21% 30.03 in 10.0 mi SSE 10.4 mph 16.1 mph N/A   Clear
3:12 PM 77.0 °F - 35.6 °F 22% 30.03 in 10.0 mi SSE 12.7 mph 25.3 mph N/A   Clear
3:32 PM 78.8 °F - 35.6 °F 21% 30.03 in 10.0 mi SSE 11.5 mph 19.6 mph N/A   Clear
3:52 PM 77.0 °F - 35.6 °F 22% 30.03 in 10.0 mi SSE 12.7 mph 19.6 mph N/A   Clear
4:12 PM 77.0 °F - 35.6 °F 22% 30.02 in 10.0 mi SSE 10.4 mph 18.4 mph N/A   Clear
4:32 PM 77.0 °F - 35.6 °F 22% 30.01 in 10.0 mi South 10.4 mph 18.4 mph N/A   Clear
4:52 PM 77.0 °F - 35.6 °F 22% 30.01 in 10.0 mi SSE 9.2 mph - N/A   Clear
5:13 PM 77.0 °F - 35.6 °F 22% 30.01 in 10.0 mi SSE 6.9 mph 16.1 mph N/A   Clear
5:32 PM 75.2 °F - 39.2 °F 27% 30.01 in 10.0 mi SSE 5.8 mph - N/A   Clear
5:52 PM 73.4 °F - 37.4 °F 27% 30.01 in 10.0 mi SSE 4.6 mph - N/A   Clear
6:12 PM 73.4 °F - 39.2 °F 29% 30.01 in 10.0 mi SSE 3.5 mph - N/A   Clear
6:32 PM 71.6 °F - 41.0 °F 33% 30.01 in 10.0 mi SSE 4.6 mph - N/A   Clear
6:52 PM 69.8 °F - 41.0 °F 35% 30.01 in 10.0 mi ESE 3.5 mph - N/A   Clear
7:12 PM 69.8 °F - 41.0 °F 35% 30.01 in 10.0 mi Calm Calm - N/A   Clear
7:32 PM 68.0 °F - 42.8 °F 40% 30.01 in 10.0 mi ESE 4.6 mph - N/A   Clear
8:12 PM 60.8 °F - 48.2 °F 63% 30.01 in 10.0 mi NE 4.6 mph - N/A   Scattered Clouds
8:32 PM 57.2 °F - 50.0 °F 77% 30.01 in 10.0 mi NE 3.5 mph - N/A   Clear
8:52 PM 55.4 °F - 48.2 °F 77% 30.01 in 10.0 mi NNE 4.6 mph - N/A   Clear
9:12 PM 53.6 °F - 48.2 °F 82% 30.01 in 10.0 mi NE 3.5 mph - N/A   Clear
9:32 PM 60.8 °F - 46.4 °F 59% 30.01 in 10.0 mi SE 5.8 mph - N/A   Clear
9:52 PM 66.2 °F - 46.4 °F 49% 30.01 in 10.0 mi SE 4.6 mph - N/A   Clear
10:12 PM 66.2 °F - 46.4 °F 49% 30.01 in 10.0 mi ESE 5.8 mph - N/A   Clear
10:32 PM 59.0 °F - 46.4 °F 63% 30.01 in 10.0 mi NE 4.6 mph - N/A   Clear
10:52 PM 51.8 °F - 46.4 °F 82% 30.01 in 10.0 mi NNE 8.1 mph - N/A   Clear
11:12 PM 50.0 °F - 46.4 °F 87% 30.01 in 10.0 mi NE 5.8 mph - N/A   Clear
11:52 PM 50.0 °F - 46.4 °F 87% 30.01 in 10.0 mi NNE 4.6 mph - N/A   Clear